Regional Weather Roundup
Issued by NWS

Home | Current Version | Previous Version | Text Only | Print | Product List | Glossary On
Versions: 1 2 3 4 5 6 7 8 9 10 11 12 13 14 15 16 17 18 19 20 21 22 23 24 25 26 27 28 29 30 31 32 33 34 35 36 37 38 39 40 41 42 43 44 45 46 47 48 49 50
000
ASUS43 KMPX 010201
RWRMN
WEATHER ROUNDUP FOR MINNESOTA
NATIONAL WEATHER SERVICE TWIN CITIES/CHANHASSEN MN
800 PM CST SAT JAN 31 2015


NOTE: "FAIR" INDICATES FEW OR NO CLOUDS BELOW 12,000 FEET WITH NO
SIGNIFICANT WEATHER AND/OR OBSTRUCTIONS TO VISIBILITY. N/A MEANS
CURRENT SKY AND/OR WEATHER CONDITIONS ARE NOT AVAILABLE.

MNZ060>063-068>070-010300-
   Twin Cities Metro

CITY           SKY/WX    TMP DP  RH WIND       PRES   REMARKS
TWIN CITIES    CLOUDY    26  13  57 NE18      30.19S WCI  13
ST PAUL        CLOUDY    26  14  60 NE10      30.22S WCI  16
CRYSTAL        CLOUDY    27  11  51 NE13      30.19S WCI  16
BLAINE         CLOUDY    28  14  54 NE13      30.20S WCI  18
LAKEVILLE      CLOUDY    25  18  74 NE9       30.17S WCI  15
EDEN PRAIRIE   CLOUDY    27  15  61 NE14      30.17S WCI  16
SOUTH ST PAUL  CLOUDY    27  15  62 NE12      30.19F WCI  16
LAKE ELMO      CLOUDY    27  16  63 NE13      30.20S WCI  16
$$
MNZ001>005-007-008-013>017-022>024-027-028-010300-
   Northwest Minnesota

CITY           SKY/WX    TMP DP  RH WIND       PRES   REMARKS
BEMIDJI        MOCLDY     0  -8  71 N8        30.34S WCI -15
HALLOCK        PTCLDY    -9 -18  64 N14       30.53S WCI -31
ROSEAU         PTCLDY    -6 -15  65 N9        30.48S WCI -22
WARROAD        MOCLDY    -6 -15  65 N10       30.47S WCI -23
THIEF RVR FALL CLEAR      0  -9  65 N10       30.43S WCI -17
CROOKSTON      PTCLDY    -2  -9  71 N14       30.48R WCI -21
FOSSTON        PTCLDY     0  -9  65 N14       30.38S WCI -19
DETROIT LAKES  CLOUDY     9  -4  56 NE12      30.31R WCI  -6
MOORHEAD       MOCLDY     7  -6  56 N18G24    30.39R WCI -12
PARK RAPIDS    MOCLDY     6  -5  60 N12       30.29S WCI  -9
MAHNOMEN       FAIR       5  -6  60 NE13      30.35R WCI -12
$$
MNZ006-009>011-018-025>026-010300-
   North Central Minnesota

CITY           SKY/WX    TMP DP  RH WIND       PRES   REMARKS
BAUDETTE       MOCLDY    -7 -15  68 N9        30.44R WCI -24
FLAG ISLAND    PTCLDY    -8 -17  65 N8        30.48S WCI -23
INTL FALLS     PTCLDY    -6 -16  61 NE8       30.41S WCI -21
WASKISH        MOCLDY    -6 -11  77 N8        30.41S WCI -21
BIG FORK       PTCLDY     1  -9  60 N5        30.36F WCI  -8
LONGVILLE      MOCLDY     9  -6  52 N7        30.31S WCI  -3
GRAND RAPIDS   MOCLDY     7  -8  51 N7        30.30S WCI  -5
CRANE LAKE     PTCLDY    -6 -15  65 CALM      30.43S
ORR            MOCLDY    -6 -15  65 CALM      30.35S
COOK           PTCLDY     0  -9  65 N3        30.36F
WALKER         FAIR       4  -5  66 N7        30.31F WCI  -8
$$
MNZ012-019>021-037-010300-
   Northeast Minnesota

CITY           SKY/WX    TMP DP  RH WIND       PRES   REMARKS
DULUTH         MOCLDY     9  -5  53 N12       30.27S WCI  -6
ELY            PTCLDY    -2  -9  71 CALM      30.34F
HIBBING        PTCLDY     5  -8  55 N9        30.32S WCI  -9
EVELETH        FAIR       3  -8  60 NE10      30.34S WCI -12
DULUTH HARBOR  MOCLDY    16   5  62 NE22      30.35S WCI  -2
TWO HARBORS    MOCLDY    10  -2  56 N9        30.31S WCI  -2
SILVER BAY     MOCLDY     7  -6  56 N7        30.32F WCI  -5
GRAND MARAIS     N/A      4 -10  52 N12G21    30.40F WCI -12
G MARAIS ARPRT PTCLDY    -8 -15  71 N7        30.29F WCI -22
$$
MNZ029>031-032-039>041-046>048-054>057-064-010300-
   West Central Minnesota

CITY           SKY/WX    TMP DP  RH WIND       PRES   REMARKS
FERGUS FALLS   MOCLDY    10   0  61 N12       30.31S WCI  -4
WHEATON        CLOUDY    10   1  67 N17       30.29R WCI  -7
MORRIS         CLOUDY    19   3  49 NE21      30.21S WCI   3
ALEXANDRIA     MOCLDY    16   1  51 NE15      30.22R WCI   1
ELBOW LAKE     CLOUDY    16  -1  48 NE14G21   30.24R WCI   1
WADENA         MOCLDY     9   0  66 NE14G22   30.26F WCI  -8
GLENWOOD       CLOUDY    18   7  62 N20G25    30.20S WCI   1
APPLETON       CLOUDY    25   7  46 NE15      30.20S WCI  12
BENSON         CLOUDY    23   7  50 E10G16    30.20S WCI  12
ORTONVILLE     CLOUDY    18   7  62 N20       30.21S WCI   1
MADISON        CLOUDY    27  14  59 NE14      30.19S WCI  15
WILLMAR        FAIR      25  10  54 NE10G17   30.19S WCI  15
$$
MNZ033>034-036-042>043-049>051-058-059-010300-
   Central Minnesota

CITY           SKY/WX    TMP DP  RH WIND       PRES   REMARKS
ST CLOUD       CLOUDY    23   7  50 NE10      30.21R WCI  12
SAUK CENTRE    CLOUDY    18   5  57 N15       30.21S WCI   4
PAYNESVILLE    CLOUDY    20   6  55 N10G20    30.20R WCI   9
AITKIN         MOCLDY    16   0  48 N9        30.27S WCI   4
PINE RIVER     MOCLDY    10   0  61 N9G18     30.31S WCI  -2
BRAINERD       MOCLDY    14  -1  51 NE14      30.26S WCI  -1
STAPLES        MOCLDY    10   0  61 N10       30.27R WCI  -3
LONG PRAIRIE   CLOUDY    18   5  57 N13       30.23R WCI   4
LITTLE FALLS   CLOUDY    19   3  49 NE7       30.25R WCI  10
LITCHFIELD     CLOUDY    25  12  58 NE10G17   30.18S WCI  15
BUFFALO        CLOUDY    25  10  51 N12G18    30.20S WCI  15
MAPLE LAKE     CLOUDY    26  11  53 NE10      30.20S WCI  16
$$
MNZ037-044-045-052-053-010300-
   East Central Minnesota

CITY           SKY/WX    TMP DP  RH WIND       PRES   REMARKS
PRINCETON      CLOUDY    25   5  42 NE12      30.22S WCI  14
MORA           CLOUDY    19   1  45 NE6G16    30.26S WCI  11
CAMBRIDGE      CLOUDY    25   9  50 NE8G17    30.22R WCI  16
RUSH CITY      CLOUDY    21   6  53 NE10G18   30.25R WCI  10
MOOSE LAKE     CLOUDY    14  -2  48 NE9       30.28R WCI   2
HINCKLEY       FAIR      21   5  49 NE12      30.26S WCI   9
CLOQUET        CLOUDY    10  -4  52 N7        30.28S WCI   0
MCGREGOR       MOCLDY    12   0  57 NE12      30.29S WCI  -2
$$
MNZ071>073-080-081-089-090-097-098-010300-
   Southwest Minnesota

CITY           SKY/WX    TMP DP  RH WIND       PRES   REMARKS
MONTEVIDEO     CLOUDY    25  16  68 E9        30.19S WCI  15
GRANITE FALLS  CLOUDY    25  19  80 N8        30.18S WCI  16
CANBY          CLOUDY    24  20  83 N9        30.17S WCI  15
MARSHALL       CLOUDY    25  18  74 NE13      30.15S WCI  13
REDWOOD FALLS  CLOUDY    26  20  77 NE5       30.15F WCI  20
OLIVIA         CLOUDY    23  19  86 NE12      30.16S WCI  12
PIPESTONE      LGT SNOW  23  21  93 E9        30.06S WCI  13
WINDOM         LGT SNOW  25  23  93 NE17      30.08F WCI  11
WORTHINGTON    CLOUDY    27  21  80 NE18      30.06F WCI  13
JACKSON        LGT SNOW  28  25  86 NE20      30.06F WCI  15
TRACY          CLOUDY    26  23  88 NE9       30.12F WCI  16
SLAYTON        LGT SNOW  23  22  98 NE9       30.08F WCI  13
$$
MNZ065>067-074>077-082>085-091>093-010300-
   South Central Minnesota

CITY           SKY/WX    TMP DP  RH WIND       PRES   REMARKS
MANKATO        CLOUDY    27  18  69 NE13G18   30.14F WCI  16
NEW ULM        CLOUDY    25  18  74 E12G17    30.15S WCI  14
ST JAMES       LGT SNOW  27  23  86 NE12      30.13  WCI  16
FAIRMONT       CLOUDY    27  23  86 NE18      30.07F WCI  13
GLENCOE        CLOUDY    26  21  80 NE5       30.16S WCI  21
FARIBAULT      CLOUDY    27  19  74 NE7       30.16S WCI  19
OWATONNA       CLOUDY    27  19  74 NE12      30.13F WCI  16
WASECA         CLOUDY    27  21  80 NE12G20   30.14S WCI  16
ALBERT LEA     LGT SNOW  27  27 100 NE15G22   30.09F VSB 1   WCI  15
$$
MNZ078>079-086>088-094>096-010300-
   Southeast Minnesota

CITY           SKY/WX    TMP DP  RH WIND       PRES   REMARKS
ROCHESTER      LGT SNOW  25  20  81 NE17      30.12F WCI  12
RED WING       CLOUDY    27  18  69 E8        30.18S WCI  18
STANTON        CLOUDY    28  20  72 NE12      30.15F WCI  17
DODGE CENTER   CLOUDY    27  21  80 E16       30.12S WCI  14
WINONA         CLOUDY    30  21  69 E9        30.18S WCI  22
AUSTIN         MIX PCPN  27  25  93 NE13      30.10S WCI  16
PRESTON        LGT SNOW  25  22  88 NE9       30.12S WCI  16
$$
ABBREVIATIONS USED IN REMARKS
   TC - TEMPERATURES IN CELSIUS
  WCI - WIND CHILL INDEX
   HX - HEAT INDEX
  VSB - VISIBILITY
$$


USA.gov is the U.S. government's official web portal to all federal, state and local government web resources and services.